EFIV Weather Reports


Display with metric or nautical units.
time (UTC)temp
F
wind
direction
speed
MPH
gust
MPH
rain 1hr
in
rain 24hr
in
rain mn
in
humidity
%
barometer
mb
20260506162727 40 31 6.0 9.0 0.00 0.00 0.00 53 1008.8
20260506160726 40 17 11.0 15.0 0.00 0.00 0.00 49 1008.7
20260506154727 41 306 6.0 9.0 0.00 0.00 0.00 46 1008.5
20260506152727 41 268 7.0 9.0 0.00 0.00 0.00 47 1008.4
20260506150726 41 222 5.0 7.0 0.00 0.00 0.00 47 1008.3
20260506144725 41 231 4.0 7.0 0.00 0.00 0.00 48 1008.3
20260506142726 40 273 3.0 7.0 0.00 0.00 0.00 57 1008.3
20260506140726 39 314 6.0 11.0 0.00 0.00 0.00 62 1008.3
20260506134726 39 308 8.0 11.0 0.00 0.00 0.00 61 1008.3
20260506132726 40 307 5.0 10.0 0.00 0.00 0.00 52 1008.1
20260506124725 40 3 2.0 6.0 0.00 0.00 0.00 53 1007.8
20260506122725 39 330 6.0 10.0 0.00 0.00 0.00 59 1007.8
20260506120726 39 261 3.0 6.0 0.00 0.00 0.00 58 1007.7
20260506114726 37 274 7.0 11.0 0.00 0.00 0.00 66 1007.6
20260506112726 36 288 12.0 17.0 0.00 0.00 0.00 72 1007.4
20260506110725 39 357 5.0 7.0 0.00 0.00 0.00 50 1007.0
20260506104727 39 271 4.0 7.0 0.00 0.00 0.00 49 1006.8
20260506102727 38 306 4.0 8.0 0.00 0.00 0.00 54 1006.6
20260506100729 38 291 8.0 11.0 0.00 0.00 0.00 51 1006.5
20260506094728 38 284 7.0 12.0 0.00 0.00 0.00 47 1006.2
20260506092728 38 262 6.0 10.0 0.00 0.00 0.00 47 1006.0
20260506090727 38 284 6.0 12.0 0.00 0.00 0.00 50 1005.9
20260506084728 38 23 4.0 10.0 0.00 0.00 0.00 48 1005.8
20260506082728 37 273 6.0 9.0 0.00 0.00 0.00 52 1005.6
20260506080727 37 24 7.0 11.0 0.00 0.00 0.00 52 1005.4
20260506072729 38 20 5.0 12.0 0.00 0.00 0.00 53 1005.1
20260506070728 37 339 4.0 6.0 0.00 0.00 0.00 55 1005.1
20260506060727 35 352 3.0 6.0 0.00 0.00 0.00 67 1004.8
20260506050727 33 2 5.0 7.0 0.00 0.00 0.00 72 1004.5
20260506044727 34 351 5.0 9.0 0.00 0.00 0.00 69 1004.3
20260506042727 34 18 4.0 8.0 0.00 0.00 0.00 73 1004.2
20260506040727 34 22 4.0 5.0 0.00 0.00 0.00 75 1004.0
20260506034728 33 254 2.0 3.0 0.00 0.00 0.00 82 1003.9
20260506032727 31 51 1.0 2.0 0.00 0.00 0.00 86 1003.8
20260506030727 29 32 4.0 6.0 0.00 0.00 0.00 88 1003.6
20260506024727 30 45 4.0 6.0 0.00 0.00 0.00 87 1003.4
20260506022727 30 38 3.0 4.0 0.00 0.00 0.00 84 1003.2
20260506020726 31 20 3.0 3.0 0.00 0.00 0.00 82 1003.1
20260506014726 31 22 3.0 4.0 0.00 0.00 0.00 82 1003.0
20260506012726 31 22 4.0 5.0 0.00 0.00 0.00 84 1002.8
20260506010727 31 27 3.0 4.0 0.00 0.00 0.00 81 1002.6
20260506004725 31 19 4.0 6.0 0.00 0.00 0.00 82 1002.5
20260506002726 32 23 4.0 6.0 0.00 0.00 0.00 79 1002.3
20260506000726 32 16 4.0 5.0 0.00 0.00 0.00 77 1002.2
20260505234726 32 16 5.0 6.0 0.00 0.00 0.00 78 1002.1
20260505232726 32 18 6.0 7.0 0.00 0.00 0.00 78 1001.9
20260505230726 31 34 4.0 5.0 0.00 0.00 0.00 81 1001.8
20260505224726 32 38 4.0 4.0 0.00 0.00 0.00 80 1001.6
20260505222726 32 20 4.0 6.0 0.00 0.00 0.00 79 1001.5
20260505220726 32 47 6.0 8.0 0.00 0.00 0.00 78 1001.4
20260505214726 34 36 8.0 10.0 0.00 0.00 0.00 73 1001.1
20260505212726 34 39 9.0 11.0 0.00 0.00 0.00 74 1000.9
20260505210725 35 31 8.0 13.0 0.00 0.00 0.00 73 1000.7
20260505204726 35 21 7.0 11.0 0.00 0.00 0.00 74 1000.6
20260505202726 35 33 6.0 9.0 0.00 0.00 0.00 76 1000.4
20260505200725 35 29 7.0 9.0 0.00 0.00 0.00 77 1000.2
20260505194724 35 23 8.0 13.0 0.00 0.00 0.00 80 1000.1
20260505192725 35 16 10.0 14.0 0.00 0.00 0.00 81 1000.0
20260505190725 35 16 11.0 18.0 0.00 0.00 0.00 83 999.8
20260505184725 36 19 11.0 16.0 0.00 0.00 0.00 75 999.6
20260505182724 36 21 12.0 16.0 0.00 0.00 0.00 76 999.3
20260505180724 37 24 12.0 17.0 0.00 0.00 0.00 74 999.0
20260505174724 37 20 14.0 19.0 0.00 0.00 0.00 75 998.7
20260505172724 37 16 11.0 17.0 0.00 0.00 0.00 75 998.5
20260505170724 38 30 11.0 17.0 0.00 0.00 0.00 74 998.3
20260505164724 37 40 12.0 18.0 0.00 0.00 0.00 75 998.2